Location: Rotheul
(50.2849°N, 11.2349°E)
Time: 11:33:58
(UTC+02:00)

ISS - Pass Details

Date: 21 May 2018
Orbit: 402 x 407 km, 51.6° (Epoch: 27 May)

Event Time Altitude Azimuth Distance (km) Brightness Sun altitude
Rises 22:15:09 0° 215° (SW) 2,309 -0.1 -9.4°
Reaches altitude 10° 22:17:27 10° 202° (SSW) 1,453 -1.3 -9.6°
Maximum altitude 22:20:10 25° 145° (SE) 870 -2.8 -9.9°
Drops below altitude 10° 22:22:53 10° 88° (E) 1,458 -1.4 -10.2°
Sets 22:25:11 0° 75° (ENE) 2,320 -0.2 -10.4°
